Time,TemperatureF,DewpointF,PressureIn,WindDirection,WindDirectionDegrees,WindSpeedMPH,WindSpeedGustMPH,Humidity,HourlyPrecipIn,Conditions,Clouds,dailyrainin,SoftwareType,DateUTC
2013-02-17 00:01:00,22.1,17.7,29.98,WNW,298,3.0,3.0,83,0.00,,,0.00,Wunderground v.1.15,2013-02-17 05:01:00,
2013-02-17 00:03:00,22.1,17.7,29.98,WNW,298,3.0,3.0,83,0.00,,,0.00,Wunderground v.1.15,2013-02-17 05:03:00,
2013-02-17 00:05:00,22.1,17.7,29.98,WNW,285,2.0,6.0,83,0.00,,,0.00,Wunderground v.1.15,2013-02-17 05:05:00,
2013-02-17 00:11:00,22.0,17.6,29.98,WNW,298,3.0,5.0,83,0.00,,,0.00,Wunderground v.1.15,2013-02-17 05:11:00,
2013-02-17 00:16:00,21.9,17.8,29.99,NW,305,3.0,5.0,84,0.00,,,0.00,Wunderground v.1.15,2013-02-17 05:16:00,
2013-02-17 00:21:00,21.8,17.7,29.98,NW,313,3.0,4.0,84,0.00,,,0.00,Wunderground v.1.15,2013-02-17 05:21:00,
2013-02-17 00:26:00,21.8,18.0,29.98,WNW,298,3.0,4.0,85,0.00,,,0.00,Wunderground v.1.15,2013-02-17 05:26:00,
2013-02-17 00:31:00,21.8,18.0,29.99,West,279,3.0,9.0,85,0.00,,,0.00,Wunderground v.1.15,2013-02-17 05:31:00,
2013-02-17 00:36:00,21.7,17.9,29.99,NW,314,3.0,9.0,85,0.00,,,0.00,Wunderground v.1.15,2013-02-17 05:36:00,
2013-02-17 00:42:00,21.6,17.5,29.99,West,275,4.0,9.0,84,0.00,,,0.00,Wunderground v.1.15,2013-02-17 05:42:00,
2013-02-17 00:47:00,21.6,17.5,29.99,WNW,302,4.0,9.0,84,0.00,,,0.00,Wunderground v.1.15,2013-02-17 05:47:00,
2013-02-17 00:53:00,21.6,17.5,29.99,NW,311,4.0,9.0,84,0.00,,,0.00,Wunderground v.1.15,2013-02-17 05:53:00,
2013-02-17 00:58:00,21.5,17.4,29.99,WNW,300,4.0,9.0,84,0.00,,,0.00,Wunderground v.1.15,2013-02-17 05:58:00,
2013-02-17 01:04:00,21.4,17.3,29.99,WNW,298,4.0,9.0,84,0.00,,,0.00,Wunderground v.1.15,2013-02-17 06:04:00,
2013-02-17 01:10:00,21.4,17.3,30.00,WNW,287,3.0,9.0,84,0.00,,,0.00,Wunderground v.1.15,2013-02-17 06:10:00,
2013-02-17 01:15:00,21.3,17.5,29.99,WNW,292,3.0,5.0,85,0.00,,,0.00,Wunderground v.1.15,2013-02-17 06:15:00,
2013-02-17 01:20:00,21.3,17.5,30.00,WNW,294,2.0,2.0,85,0.00,,,0.00,Wunderground v.1.15,2013-02-17 06:20:00,
2013-02-17 01:25:00,21.3,17.8,30.00,WNW,303,2.0,5.0,86,0.00,,,0.00,Wunderground v.1.15,2013-02-17 06:25:00,
2013-02-17 01:31:00,21.2,17.7,30.00,WNW,285,3.0,12.0,86,0.00,,,0.00,Wunderground v.1.15,2013-02-17 06:31:00,
2013-02-17 01:36:00,21.1,17.8,30.00,NNW,329,3.0,12.0,87,0.00,,,0.00,Wunderground v.1.15,2013-02-17 06:36:00,
2013-02-17 01:41:00,21.0,17.7,30.00,NNW,335,3.0,12.0,87,0.00,,,0.00,Wunderground v.1.15,2013-02-17 06:41:00,
2013-02-17 01:46:00,20.8,17.5,30.00,NNW,333,3.0,12.0,87,0.00,,,0.00,Wunderground v.1.15,2013-02-17 06:46:00,
2013-02-17 01:52:00,20.7,17.4,30.00,NW,319,4.0,12.0,87,0.00,,,0.00,Wunderground v.1.15,2013-02-17 06:52:00,
2013-02-17 01:58:00,20.7,17.4,30.00,NW,313,3.0,12.0,87,0.00,,,0.00,Wunderground v.1.15,2013-02-17 06:58:00,
2013-02-17 02:03:00,20.6,17.3,30.00,NNW,330,2.0,12.0,87,0.00,,,0.00,Wunderground v.1.15,2013-02-17 07:03:00,
2013-02-17 02:09:00,20.5,17.2,30.00,NW,312,2.0,12.0,87,0.00,,,0.00,Wunderground v.1.15,2013-02-17 07:09:00,
2013-02-17 02:14:00,20.4,17.1,30.00,NW,309,2.0,4.0,87,0.00,,,0.00,Wunderground v.1.15,2013-02-17 07:14:00,
2013-02-17 02:20:00,20.4,17.4,30.00,NW,306,2.0,4.0,88,0.00,,,0.00,Wunderground v.1.15,2013-02-17 07:20:00,
2013-02-17 02:25:00,20.3,17.3,30.00,NNW,329,2.0,4.0,88,0.00,,,0.00,Wunderground v.1.15,2013-02-17 07:25:00,
2013-02-17 02:30:00,20.2,17.2,30.00,NW,317,3.0,3.0,88,0.00,,,0.00,Wunderground v.1.15,2013-02-17 07:30:00,
2013-02-17 02:35:00,20.1,17.1,30.00,NW,323,3.0,8.0,88,0.00,,,0.00,Wunderground v.1.15,2013-02-17 07:35:00,
2013-02-17 02:41:00,20.1,17.1,30.00,WNW,293,3.0,8.0,88,0.00,,,0.00,Wunderground v.1.15,2013-02-17 07:41:00,
2013-02-17 02:46:00,20.0,17.0,30.00,NNW,328,3.0,8.0,88,0.00,,,0.00,Wunderground v.1.15,2013-02-17 07:46:00,
2013-02-17 02:51:00,20.0,16.8,30.00,NW,317,4.0,8.0,87,0.00,,,0.00,Wunderground v.1.15,2013-02-17 07:51:00,
2013-02-17 02:57:00,20.0,16.8,30.01,WNW,298,4.0,8.0,87,0.00,,,0.00,Wunderground v.1.15,2013-02-17 07:57:00,
2013-02-17 03:03:00,20.0,16.5,30.01,NW,326,4.0,8.0,86,0.00,,,0.00,Wunderground v.1.15,2013-02-17 08:03:00,
2013-02-17 03:08:00,20.0,16.5,30.01,NNW,329,4.0,8.0,86,0.00,,,0.00,Wunderground v.1.15,2013-02-17 08:08:00,
2013-02-17 03:13:00,19.9,16.4,30.01,WNW,298,4.0,8.0,86,0.00,,,0.00,Wunderground v.1.15,2013-02-17 08:13:00,
2013-02-17 03:19:00,19.9,16.4,30.01,WNW,292,4.0,8.0,86,0.00,,,0.00,Wunderground v.1.15,2013-02-17 08:19:00,
2013-02-17 03:24:00,19.9,16.4,30.01,WNW,294,4.0,4.0,86,0.00,,,0.00,Wunderground v.1.15,2013-02-17 08:24:00,
2013-02-17 03:30:00,19.8,16.3,30.01,NW,317,4.0,4.0,86,0.00,,,0.00,Wunderground v.1.15,2013-02-17 08:30:00,
2013-02-17 03:35:00,19.7,15.9,30.01,NW,311,4.0,10.0,85,0.00,,,0.00,Wunderground v.1.15,2013-02-17 08:35:00,
2013-02-17 03:40:00,19.7,15.9,30.01,WNW,300,5.0,10.0,85,0.00,,,0.00,Wunderground v.1.15,2013-02-17 08:40:00,
2013-02-17 03:45:00,19.5,16.0,30.01,WNW,296,5.0,10.0,86,0.00,,,0.00,Wunderground v.1.15,2013-02-17 08:45:00,
2013-02-17 03:50:00,19.3,15.8,30.01,WNW,298,5.0,10.0,86,0.00,,,0.00,Wunderground v.1.15,2013-02-17 08:50:00,
2013-02-17 03:55:00,18.9,15.4,30.01,NW,322,5.0,10.0,86,0.00,,,0.00,Wunderground v.1.15,2013-02-17 08:55:00,
2013-02-17 04:01:00,18.8,15.3,30.02,NNW,336,4.0,5.0,86,0.00,,,0.00,Wunderground v.1.15,2013-02-17 09:01:00,
2013-02-17 04:06:00,18.6,15.1,30.02,WNW,287,4.0,7.0,86,0.00,,,0.00,Wunderground v.1.15,2013-02-17 09:06:00,
2013-02-17 04:12:00,18.4,14.9,30.02,NNW,331,5.0,5.0,86,0.00,,,0.00,Wunderground v.1.15,2013-02-17 09:12:00,
2013-02-17 04:18:00,18.1,14.4,30.02,NNW,327,5.0,7.0,85,0.00,,,0.00,Wunderground v.1.15,2013-02-17 09:18:00,
2013-02-17 04:23:00,18.0,14.3,30.02,NW,307,5.0,6.0,85,0.00,,,0.00,Wunderground v.1.15,2013-02-17 09:23:00,
2013-02-17 04:28:00,17.9,14.2,30.03,WNW,288,4.0,6.0,85,0.00,,,0.00,Wunderground v.1.15,2013-02-17 09:28:00,
2013-02-17 04:34:00,17.7,14.2,30.03,WNW,300,4.0,10.0,86,0.00,,,0.00,Wunderground v.1.15,2013-02-17 09:34:00,
2013-02-17 04:39:00,17.6,14.1,30.03,WNW,300,4.0,10.0,86,0.00,,,0.00,Wunderground v.1.15,2013-02-17 09:39:00,
2013-02-17 04:45:00,17.6,14.4,30.03,NW,325,3.0,10.0,87,0.00,,,0.00,Wunderground v.1.15,2013-02-17 09:45:00,
2013-02-17 04:50:00,17.5,14.3,30.03,NW,326,3.0,10.0,87,0.00,,,0.00,Wunderground v.1.15,2013-02-17 09:50:00,
2013-02-17 04:56:00,17.5,14.3,30.03,NW,312,4.0,10.0,87,0.00,,,0.00,Wunderground v.1.15,2013-02-17 09:56:00,
2013-02-17 05:01:00,17.4,14.5,30.04,West,281,4.0,4.0,88,0.00,,,0.00,Wunderground v.1.15,2013-02-17 10:01:00,
2013-02-17 05:06:00,17.3,14.4,30.04,NW,322,4.0,6.0,88,0.00,,,0.00,Wunderground v.1.15,2013-02-17 10:06:00,
2013-02-17 05:12:00,17.2,14.3,30.04,WNW,303,4.0,4.0,88,0.00,,,0.00,Wunderground v.1.15,2013-02-17 10:12:00,
2013-02-17 05:17:00,17.1,14.2,30.04,WNW,290,3.0,4.0,88,0.00,,,0.00,Wunderground v.1.15,2013-02-17 10:17:00,
2013-02-17 05:22:00,17.0,14.1,30.04,NW,304,3.0,8.0,88,0.00,,,0.00,Wunderground v.1.15,2013-02-17 10:22:00,
2013-02-17 05:27:00,16.9,14.0,30.05,WNW,303,4.0,8.0,88,0.00,,,0.00,Wunderground v.1.15,2013-02-17 10:27:00,
2013-02-17 05:32:00,16.8,13.6,30.05,NNW,339,3.0,14.0,87,0.00,,,0.00,Wunderground v.1.15,2013-02-17 10:32:00,
2013-02-17 05:37:00,16.6,13.4,30.05,NW,325,3.0,14.0,87,0.00,,,0.00,Wunderground v.1.15,2013-02-17 10:37:00,
2013-02-17 05:42:00,16.4,13.2,30.05,NW,317,3.0,14.0,87,0.00,,,0.00,Wunderground v.1.15,2013-02-17 10:42:00,
2013-02-17 05:48:00,16.1,12.9,30.06,WNW,296,4.0,14.0,87,0.00,,,0.00,Wunderground v.1.15,2013-02-17 10:48:00,
2013-02-17 05:53:00,16.0,12.6,30.06,NW,315,2.0,14.0,86,0.00,,,0.00,Wunderground v.1.15,2013-02-17 10:53:00,
2013-02-17 05:58:00,15.8,12.6,30.06,NNW,337,2.0,14.0,87,0.00,,,0.00,Wunderground v.1.15,2013-02-17 10:58:00,
2013-02-17 06:04:00,15.5,12.3,30.06,North,349,2.0,14.0,87,0.00,,,0.00,Wunderground v.1.15,2013-02-17 11:04:00,
2013-02-17 06:10:00,15.5,12.3,30.06,West,279,2.0,14.0,87,0.00,,,0.00,Wunderground v.1.15,2013-02-17 11:10:00,
2013-02-17 06:15:00,15.4,12.2,30.06,NNW,342,2.0,5.0,87,0.00,,,0.00,Wunderground v.1.15,2013-02-17 11:15:00,
2013-02-17 06:20:00,15.3,12.1,30.06,NW,318,2.0,2.0,87,0.00,,,0.00,Wunderground v.1.15,2013-02-17 11:20:00,
2013-02-17 06:25:00,15.3,12.1,30.07,NW,307,2.0,3.0,87,0.00,,,0.00,Wunderground v.1.15,2013-02-17 11:25:00,
2013-02-17 06:30:00,15.3,12.1,30.07,NNW,330,2.0,4.0,87,0.00,,,0.00,Wunderground v.1.15,2013-02-17 11:30:00,
2013-02-17 06:36:00,15.4,12.2,30.07,NNW,340,3.0,9.0,87,0.00,,,0.00,Wunderground v.1.15,2013-02-17 11:36:00,
2013-02-17 06:41:00,15.4,12.2,30.07,WNW,294,3.0,9.0,87,0.00,,,0.00,Wunderground v.1.15,2013-02-17 11:41:00,
2013-02-17 06:47:00,15.5,12.1,30.07,WSW,258,3.0,9.0,86,0.00,,,0.00,Wunderground v.1.15,2013-02-17 11:47:00,
2013-02-17 06:52:00,15.6,12.2,30.07,West,281,3.0,9.0,86,0.00,,,0.00,Wunderground v.1.15,2013-02-17 11:52:00,
2013-02-17 06:58:00,15.6,11.9,30.08,NNW,331,4.0,9.0,85,0.00,,,0.00,Wunderground v.1.15,2013-02-17 11:58:00,
2013-02-17 07:03:00,15.5,11.8,30.07,SSE,161,5.0,9.0,85,0.00,,,0.00,Wunderground v.1.15,2013-02-17 12:03:00,
2013-02-17 07:08:00,15.5,11.5,30.08,NNE,13,4.0,9.0,84,0.00,,,0.00,Wunderground v.1.15,2013-02-17 12:08:00,
2013-02-17 07:13:00,15.5,11.8,30.08,North,355,3.0,4.0,85,0.00,,,0.00,Wunderground v.1.15,2013-02-17 12:13:00,
2013-02-17 07:20:00,15.4,11.7,30.08,NNW,333,3.0,3.0,85,0.00,,,0.00,Wunderground v.1.15,2013-02-17 12:20:00,
2013-02-17 07:25:00,15.4,11.7,30.08,North,355,3.0,6.0,85,0.00,,,0.00,Wunderground v.1.15,2013-02-17 12:25:00,
2013-02-17 07:31:00,15.4,11.7,30.08,NW,321,3.0,5.0,85,0.00,,,0.00,Wunderground v.1.15,2013-02-17 12:31:00,
2013-02-17 07:37:00,15.3,11.6,30.09,NW,321,3.0,7.0,85,0.00,,,0.00,Wunderground v.1.15,2013-02-17 12:37:00,
2013-02-17 07:42:00,15.3,11.6,30.09,NNW,336,3.0,7.0,85,0.00,,,0.00,Wunderground v.1.15,2013-02-17 12:42:00,
2013-02-17 07:48:00,15.3,11.9,30.09,WSW,241,3.0,8.0,86,0.00,,,0.00,Wunderground v.1.15,2013-02-17 12:48:00,
2013-02-17 07:53:00,15.3,11.9,30.09,NNW,335,3.0,7.0,86,0.00,,,0.00,Wunderground v.1.15,2013-02-17 12:53:00,
2013-02-17 07:58:00,15.3,11.9,30.09,West,280,3.0,7.0,86,0.00,,,0.00,Wunderground v.1.15,2013-02-17 12:58:00,
2013-02-17 08:03:00,15.4,12.0,30.09,WNW,284,4.0,4.0,86,0.00,,,0.00,Wunderground v.1.15,2013-02-17 13:03:00,
2013-02-17 08:08:00,15.5,12.1,30.10,WSW,257,4.0,5.0,86,0.00,,,0.00,Wunderground v.1.15,2013-02-17 13:08:00,
2013-02-17 08:14:00,15.8,12.1,30.10,WNW,300,4.0,10.0,85,0.00,,,0.00,Wunderground v.1.15,2013-02-17 13:14:00,
2013-02-17 08:19:00,15.9,12.2,30.10,NW,322,4.0,4.0,85,0.00,,,0.00,Wunderground v.1.15,2013-02-17 13:19:00,
2013-02-17 08:24:00,16.0,12.0,30.10,NW,321,4.0,7.0,84,0.00,,,0.00,Wunderground v.1.15,2013-02-17 13:24:00,
2013-02-17 08:29:00,16.1,12.1,30.11,West,278,4.0,4.0,84,0.00,,,0.00,Wunderground v.1.15,2013-02-17 13:29:00,
2013-02-17 08:34:00,16.2,12.2,30.11,NNW,333,4.0,7.0,84,0.00,,,0.00,Wunderground v.1.15,2013-02-17 13:34:00,
2013-02-17 08:39:00,16.2,12.2,30.11,NW,311,4.0,5.0,84,0.00,,,0.00,Wunderground v.1.15,2013-02-17 13:39:00,
2013-02-17 08:45:00,16.2,12.2,30.11,WNW,288,3.0,5.0,84,0.00,,,0.00,Wunderground v.1.15,2013-02-17 13:45:00,
2013-02-17 08:50:00,16.3,12.0,30.11,NW,326,3.0,6.0,83,0.00,,,0.00,Wunderground v.1.15,2013-02-17 13:50:00,
2013-02-17 08:56:00,16.3,12.0,30.11,NNW,342,3.0,8.0,83,0.00,,,0.00,Wunderground v.1.15,2013-02-17 13:56:00,
2013-02-17 09:01:00,16.3,12.0,30.11,WNW,300,4.0,4.0,83,0.00,,,0.00,Wunderground v.1.15,2013-02-17 14:01:00,
2013-02-17 09:06:00,16.4,12.1,30.12,South,178,3.0,4.0,83,0.00,,,0.00,Wunderground v.1.15,2013-02-17 14:06:00,
2013-02-17 09:12:00,16.8,12.8,30.12,NNW,339,2.0,3.0,84,0.00,,,0.00,Wunderground v.1.15,2013-02-17 14:12:00,
2013-02-17 09:17:00,16.9,12.6,30.12,NNW,341,2.0,6.0,83,0.00,,,0.00,Wunderground v.1.15,2013-02-17 14:17:00,
2013-02-17 09:22:00,16.9,12.9,30.12,WNW,298,4.0,6.0,84,0.00,,,0.00,Wunderground v.1.15,2013-02-17 14:22:00,
2013-02-17 09:27:00,17.1,12.8,30.12,NNW,331,5.0,8.0,83,0.00,,,0.00,Wunderground v.1.15,2013-02-17 14:27:00,
2013-02-17 09:32:00,17.2,12.9,30.12,NNW,331,5.0,11.0,83,0.00,,,0.00,Wunderground v.1.15,2013-02-17 14:32:00,
2013-02-17 09:38:00,17.3,13.0,30.12,NW,317,4.0,11.0,83,0.00,,,0.00,Wunderground v.1.15,2013-02-17 14:38:00,
2013-02-17 09:44:00,17.6,13.3,30.13,SSW,205,4.0,11.0,83,0.00,,,0.00,Wunderground v.1.15,2013-02-17 14:44:00,
2013-02-17 09:50:00,17.8,13.2,30.13,NNW,340,4.0,11.0,82,0.00,,,0.00,Wunderground v.1.15,2013-02-17 14:50:00,
2013-02-17 09:55:00,18.1,13.5,30.14,NW,310,4.0,11.0,82,0.00,,,0.00,Wunderground v.1.15,2013-02-17 14:55:00,
2013-02-17 10:01:00,18.2,13.3,30.14,WNW,300,4.0,8.0,81,0.00,,,0.00,Wunderground v.1.15,2013-02-17 15:01:00,
2013-02-17 10:06:00,18.3,13.4,30.14,WNW,300,4.0,8.0,81,0.00,,,0.00,Wunderground v.1.15,2013-02-17 15:06:00,
2013-02-17 10:11:00,18.5,13.6,30.14,North,350,4.0,5.0,81,0.00,,,0.00,Wunderground v.1.15,2013-02-17 15:11:00,
2013-02-17 10:17:00,18.5,13.6,30.14,NW,315,4.0,6.0,81,0.00,,,0.00,Wunderground v.1.15,2013-02-17 15:17:00,
2013-02-17 10:23:00,18.8,14.2,30.14,NW,306,3.0,4.0,82,0.00,,,0.00,Wunderground v.1.15,2013-02-17 15:23:00,
2013-02-17 10:28:00,19.0,13.8,30.14,NNW,333,3.0,7.0,80,0.00,,,0.00,Wunderground v.1.15,2013-02-17 15:28:00,
2013-02-17 10:33:00,18.9,13.7,30.14,NW,325,5.0,14.0,80,0.00,,,0.00,Wunderground v.1.15,2013-02-17 15:33:00,
2013-02-17 10:38:00,18.8,13.7,30.15,WNW,297,5.0,14.0,80,0.00,,,0.00,Wunderground v.1.15,2013-02-17 15:38:00,
2013-02-17 10:43:00,18.8,13.7,30.15,WNW,283,4.0,12.0,80,0.00,,,0.00,Wunderground v.1.15,2013-02-17 15:43:00,
2013-02-17 10:49:00,18.8,13.4,30.15,North,355,4.0,12.0,79,0.00,,,0.00,Wunderground v.1.15,2013-02-17 15:49:00,
2013-02-17 10:54:00,19.0,13.6,30.15,NNW,334,5.0,12.0,79,0.00,,,0.00,Wunderground v.1.15,2013-02-17 15:54:00,
2013-02-17 11:00:00,19.5,14.0,30.15,NW,325,4.0,4.0,79,0.00,,,0.00,Wunderground v.1.15,2013-02-17 16:00:00,
2013-02-17 11:05:00,19.7,14.0,30.16,North,5,2.0,4.0,78,0.00,,,0.00,Wunderground v.1.15,2013-02-17 16:05:00,
2013-02-17 11:10:00,19.7,14.0,30.16,NW,317,3.0,3.0,78,0.00,,,0.00,Wunderground v.1.15,2013-02-17 16:10:00,
2013-02-17 11:15:00,19.9,13.9,30.16,NW,325,3.0,10.0,77,0.00,,,0.00,Wunderground v.1.15,2013-02-17 16:15:00,
2013-02-17 11:20:00,20.2,13.8,30.16,West,268,5.0,5.0,76,0.00,,,0.00,Wunderground v.1.15,2013-02-17 16:20:00,
2013-02-17 11:25:00,20.2,13.5,30.16,West,276,6.0,9.0,75,0.00,,,0.00,Wunderground v.1.15,2013-02-17 16:25:00,
2013-02-17 11:30:00,20.5,13.8,30.16,NW,323,5.0,5.0,75,0.00,,,0.00,Wunderground v.1.15,2013-02-17 16:30:00,
2013-02-17 11:35:00,20.4,13.7,30.16,West,274,4.0,14.0,75,0.00,,,0.00,Wunderground v.1.15,2013-02-17 16:35:00,
2013-02-17 11:40:00,20.4,13.7,30.16,NW,304,4.0,4.0,75,0.00,,,0.00,Wunderground v.1.15,2013-02-17 16:40:00,
2013-02-17 11:46:00,20.0,13.3,30.16,NNW,330,5.0,14.0,75,0.00,,,0.00,Wunderground v.1.15,2013-02-17 16:46:00,
2013-02-17 11:51:00,20.2,13.2,30.16,NW,309,5.0,14.0,74,0.00,,,0.00,Wunderground v.1.15,2013-02-17 16:51:00,
2013-02-17 11:56:00,20.0,13.3,30.16,West,270,6.0,14.0,75,0.00,,,0.00,Wunderground v.1.15,2013-02-17 16:56:00,
2013-02-17 12:02:00,20.4,13.7,30.17,WNW,300,4.0,5.0,75,0.00,,,0.00,Wunderground v.1.15,2013-02-17 17:02:00,
2013-02-17 12:07:00,20.6,13.9,30.17,WNW,287,4.0,8.0,75,0.00,,,0.00,Wunderground v.1.15,2013-02-17 17:07:00,
2013-02-17 12:12:00,20.5,13.5,30.17,West,261,4.0,8.0,74,0.00,,,0.00,Wunderground v.1.15,2013-02-17 17:12:00,
2013-02-17 12:17:00,20.3,13.0,30.17,NNW,336,5.0,9.0,73,0.00,,,0.00,Wunderground v.1.15,2013-02-17 17:17:00,
2013-02-17 12:23:00,20.2,13.2,30.17,West,265,5.0,7.0,74,0.00,,,0.00,Wunderground v.1.15,2013-02-17 17:23:00,
2013-02-17 12:28:00,20.0,13.0,30.17,West,280,4.0,8.0,74,0.00,,,0.00,Wunderground v.1.15,2013-02-17 17:28:00,
2013-02-17 12:33:00,20.1,13.4,30.17,NNW,339,3.0,15.0,75,0.00,,,0.00,Wunderground v.1.15,2013-02-17 17:33:00,
2013-02-17 12:38:00,20.0,13.0,30.16,NW,309,3.0,15.0,74,0.00,,,0.00,Wunderground v.1.15,2013-02-17 17:38:00,
2013-02-17 12:43:00,20.1,13.7,30.17,NW,318,4.0,15.0,76,0.00,,,0.00,Wunderground v.1.15,2013-02-17 17:43:00,
2013-02-17 12:48:00,20.2,14.1,30.17,NNE,17,4.0,15.0,77,0.00,,,0.00,Wunderground v.1.15,2013-02-17 17:48:00,
2013-02-17 12:53:00,20.7,15.2,30.16,WNW,299,3.0,15.0,79,0.00,,,0.00,Wunderground v.1.15,2013-02-17 17:53:00,
2013-02-17 12:59:00,21.1,15.6,30.16,SE,137,3.0,15.0,79,0.00,,,0.00,Wunderground v.1.15,2013-02-17 17:59:00,
2013-02-17 13:04:00,20.7,14.6,30.16,North,360,3.0,4.0,77,0.00,,,0.00,Wunderground v.1.15,2013-02-17 18:04:00,
2013-02-17 13:10:00,20.9,14.2,30.16,WSW,244,4.0,4.0,75,0.00,,,0.00,Wunderground v.1.15,2013-02-17 18:10:00,
2013-02-17 13:15:00,21.1,14.4,30.16,West,266,3.0,7.0,75,0.00,,,0.00,Wunderground v.1.15,2013-02-17 18:15:00,
2013-02-17 13:20:00,21.7,15.0,30.16,SSW,203,3.0,7.0,75,0.00,,,0.00,Wunderground v.1.15,2013-02-17 18:20:00,
2013-02-17 13:26:00,21.8,14.5,30.16,North,360,4.0,7.0,73,0.00,,,0.00,Wunderground v.1.15,2013-02-17 18:26:00,
2013-02-17 13:31:00,22.2,15.2,30.16,NW,308,4.0,12.0,74,0.00,,,0.00,Wunderground v.1.15,2013-02-17 18:31:00,
2013-02-17 13:36:00,22.1,14.8,30.16,SE,141,4.0,12.0,73,0.00,,,0.00,Wunderground v.1.15,2013-02-17 18:36:00,
2013-02-17 13:41:00,21.7,14.7,30.16,NNW,341,4.0,12.0,74,0.00,,,0.00,Wunderground v.1.15,2013-02-17 18:41:00,
2013-02-17 13:46:00,21.4,15.9,30.16,WNW,294,4.0,12.0,79,0.00,,,0.00,Wunderground v.1.15,2013-02-17 18:46:00,
2013-02-17 13:51:00,21.4,15.3,30.16,NW,321,3.0,12.0,77,0.00,,,0.00,Wunderground v.1.15,2013-02-17 18:51:00,
2013-02-17 13:57:00,21.6,15.8,30.16,NW,325,3.0,12.0,78,0.00,,,0.00,Wunderground v.1.15,2013-02-17 18:57:00,
2013-02-17 14:02:00,21.8,15.4,30.16,WNW,294,3.0,12.0,76,0.00,,,0.00,Wunderground v.1.15,2013-02-17 19:02:00,
2013-02-17 14:07:00,21.8,14.5,30.16,SW,227,3.0,12.0,73,0.00,,,0.00,Wunderground v.1.15,2013-02-17 19:07:00,
2013-02-17 14:12:00,21.4,15.3,30.16,NW,307,5.0,8.0,77,0.00,,,0.00,Wunderground v.1.15,2013-02-17 19:12:00,
2013-02-17 14:18:00,21.2,15.7,30.16,WNW,286,5.0,8.0,79,0.00,,,0.00,Wunderground v.1.15,2013-02-17 19:18:00,
2013-02-17 14:23:00,21.2,15.1,30.16,NNW,337,5.0,9.0,77,0.00,,,0.00,Wunderground v.1.15,2013-02-17 19:23:00,
2013-02-17 14:28:00,21.1,15.0,30.17,West,263,6.0,9.0,77,0.00,,,0.00,Wunderground v.1.15,2013-02-17 19:28:00,
2013-02-17 14:35:00,21.1,14.7,30.16,West,277,6.0,11.0,76,0.00,,,0.00,Wunderground v.1.15,2013-02-17 19:35:00,
2013-02-17 14:40:00,21.3,14.9,30.16,WNW,288,6.0,6.0,76,0.00,,,0.00,Wunderground v.1.15,2013-02-17 19:40:00,
2013-02-17 14:45:00,21.9,15.2,30.16,WNW,298,5.0,11.0,75,0.00,,,0.00,Wunderground v.1.15,2013-02-17 19:45:00,
2013-02-17 14:51:00,22.2,15.2,30.16,NW,310,4.0,11.0,74,0.00,,,0.00,Wunderground v.1.15,2013-02-17 19:51:00,
2013-02-17 14:56:00,22.3,15.0,30.16,NW,310,4.0,11.0,73,0.00,,,0.00,Wunderground v.1.15,2013-02-17 19:56:00,
2013-02-17 15:01:00,22.2,14.5,30.16,West,280,4.0,4.0,72,0.00,,,0.00,Wunderground v.1.15,2013-02-17 20:01:00,
2013-02-17 15:06:00,22.1,13.8,30.17,NW,325,3.0,7.0,70,0.00,,,0.00,Wunderground v.1.15,2013-02-17 20:06:00,
2013-02-17 15:12:00,21.9,13.6,30.17,NW,311,4.0,4.0,70,0.00,,,0.00,Wunderground v.1.15,2013-02-17 20:12:00,
2013-02-17 15:17:00,21.8,14.8,30.17,WNW,290,5.0,13.0,74,0.00,,,0.00,Wunderground v.1.15,2013-02-17 20:17:00,
2013-02-17 15:23:00,21.4,14.1,30.17,NNW,328,5.0,9.0,73,0.00,,,0.00,Wunderground v.1.15,2013-02-17 20:23:00,
2013-02-17 15:28:00,21.8,14.8,30.17,NW,314,4.0,9.0,74,0.00,,,0.00,Wunderground v.1.15,2013-02-17 20:28:00,
2013-02-17 15:33:00,22.1,14.8,30.17,NNE,13,3.0,13.0,73,0.00,,,0.00,Wunderground v.1.15,2013-02-17 20:33:00,
2013-02-17 15:38:00,22.3,13.7,30.18,North,355,4.0,13.0,69,0.00,,,0.00,Wunderground v.1.15,2013-02-17 20:38:00,
2013-02-17 15:44:00,22.6,13.6,30.17,WNW,285,5.0,13.0,68,0.00,,,0.00,Wunderground v.1.15,2013-02-17 20:44:00,
2013-02-17 15:49:00,22.7,12.7,30.18,WNW,290,5.0,13.0,65,0.00,,,0.00,Wunderground v.1.15,2013-02-17 20:49:00,
2013-02-17 15:55:00,22.6,11.9,30.18,North,360,6.0,13.0,63,0.00,,,0.00,Wunderground v.1.15,2013-02-17 20:55:00,
2013-02-17 16:01:00,22.9,12.2,30.18,NNW,333,5.0,6.0,63,0.00,,,0.00,Wunderground v.1.15,2013-02-17 21:01:00,
2013-02-17 16:06:00,22.7,12.3,30.19,West,281,5.0,10.0,64,0.00,,,0.00,Wunderground v.1.15,2013-02-17 21:06:00,
2013-02-17 16:12:00,22.6,12.2,30.19,WSW,246,4.0,4.0,64,0.00,,,0.00,Wunderground v.1.15,2013-02-17 21:12:00,
2013-02-17 16:17:00,22.4,11.7,30.19,NW,311,4.0,6.0,63,0.00,,,0.00,Wunderground v.1.15,2013-02-17 21:17:00,
2013-02-17 16:22:00,22.4,12.8,30.19,WSW,245,3.0,5.0,66,0.00,,,0.00,Wunderground v.1.15,2013-02-17 21:22:00,
2013-02-17 16:27:00,22.2,12.6,30.19,SW,232,3.0,6.0,66,0.00,,,0.00,Wunderground v.1.15,2013-02-17 21:27:00,
2013-02-17 16:32:00,22.1,12.8,30.20,NNW,338,3.0,13.0,67,0.00,,,0.00,Wunderground v.1.15,2013-02-17 21:32:00,
2013-02-17 16:37:00,22.0,12.7,30.20,WNW,302,3.0,13.0,67,0.00,,,0.00,Wunderground v.1.15,2013-02-17 21:37:00,
2013-02-17 16:43:00,21.8,12.5,30.20,WNW,302,4.0,13.0,67,0.00,,,0.00,Wunderground v.1.15,2013-02-17 21:43:00,
2013-02-17 16:48:00,21.7,12.1,30.20,NW,311,4.0,13.0,66,0.00,,,0.00,Wunderground v.1.15,2013-02-17 21:48:00,
2013-02-17 16:53:00,21.7,12.4,30.20,WNW,299,4.0,13.0,67,0.00,,,0.00,Wunderground v.1.15,2013-02-17 21:53:00,
2013-02-17 17:00:00,21.4,11.8,30.20,NNW,330,4.0,13.0,66,0.00,,,0.00,Wunderground v.1.15,2013-02-17 22:00:00,
2013-02-17 17:05:00,21.4,12.1,30.21,WNW,299,3.0,13.0,67,0.00,,,0.00,Wunderground v.1.15,2013-02-17 22:05:00,
2013-02-17 17:10:00,21.3,12.7,30.21,WNW,292,4.0,5.0,69,0.00,,,0.00,Wunderground v.1.15,2013-02-17 22:10:00,
2013-02-17 17:15:00,21.3,13.4,30.21,NW,319,5.0,5.0,71,0.00,,,0.00,Wunderground v.1.15,2013-02-17 22:15:00,
2013-02-17 17:20:00,21.1,13.8,30.22,NNW,337,4.0,4.0,73,0.00,,,0.00,Wunderground v.1.15,2013-02-17 22:20:00,
2013-02-17 17:25:00,21.0,14.0,30.22,NNW,336,3.0,5.0,74,0.00,,,0.00,Wunderground v.1.15,2013-02-17 22:25:00,
2013-02-17 17:31:00,20.9,13.9,30.22,WNW,287,3.0,3.0,74,0.00,,,0.00,Wunderground v.1.15,2013-02-17 22:31:00,
2013-02-17 17:37:00,20.9,13.9,30.22,West,265,4.0,14.0,74,0.00,,,0.00,Wunderground v.1.15,2013-02-17 22:37:00,
2013-02-17 17:42:00,20.8,13.5,30.22,NNW,337,4.0,14.0,73,0.00,,,0.00,Wunderground v.1.15,2013-02-17 22:42:00,
2013-02-17 17:47:00,20.7,13.1,30.22,NW,323,4.0,14.0,72,0.00,,,0.00,Wunderground v.1.15,2013-02-17 22:47:00,
2013-02-17 17:53:00,20.6,13.3,30.22,NW,317,4.0,14.0,73,0.00,,,0.00,Wunderground v.1.15,2013-02-17 22:53:00,
2013-02-17 17:58:00,20.5,13.5,30.23,WNW,294,4.0,14.0,74,0.00,,,0.00,Wunderground v.1.15,2013-02-17 22:58:00,
2013-02-17 18:03:00,20.5,13.5,30.23,WNW,294,3.0,5.0,74,0.00,,,0.00,Wunderground v.1.15,2013-02-17 23:03:00,
2013-02-17 18:09:00,20.4,13.4,30.23,WNW,288,1.0,5.0,74,0.00,,,0.00,Wunderground v.1.15,2013-02-17 23:09:00,
2013-02-17 18:15:00,20.3,13.6,30.23,NNW,334,1.0,3.0,75,0.00,,,0.00,Wunderground v.1.15,2013-02-17 23:15:00,
2013-02-17 18:20:00,20.3,13.6,30.24,NW,326,2.0,3.0,75,0.00,,,0.00,Wunderground v.1.15,2013-02-17 23:20:00,
2013-02-17 18:25:00,20.3,13.6,30.24,NNW,327,2.0,6.0,75,0.00,,,0.00,Wunderground v.1.15,2013-02-17 23:25:00,
2013-02-17 18:31:00,20.4,14.3,30.24,WNW,286,3.0,11.0,77,0.00,,,0.00,Wunderground v.1.15,2013-02-17 23:31:00,
2013-02-17 18:37:00,20.2,15.0,30.25,NNW,334,3.0,11.0,80,0.00,,,0.00,Wunderground v.1.15,2013-02-17 23:37:00,
2013-02-17 18:42:00,20.0,15.4,30.25,North,355,2.0,11.0,82,0.00,,,0.00,Wunderground v.1.15,2013-02-17 23:42:00,
2013-02-17 18:48:00,19.7,15.4,30.25,North,351,1.0,11.0,83,0.00,,,0.00,Wunderground v.1.15,2013-02-17 23:48:00,
2013-02-17 18:53:00,19.7,15.6,30.25,West,273,1.0,11.0,84,0.00,,,0.00,Wunderground v.1.15,2013-02-17 23:53:00,
2013-02-17 18:58:00,19.4,17.2,30.25,NW,305,2.0,11.0,91,0.00,,,0.00,Wunderground v.1.15,2013-02-17 23:58:00,
2013-02-17 19:04:00,19.3,15.0,30.25,WNW,290,2.0,11.0,83,0.00,,,0.00,Wunderground v.1.15,2013-02-18 00:04:00,
2013-02-17 19:09:00,19.3,15.0,30.26,NNW,338,2.0,11.0,83,0.00,,,0.00,Wunderground v.1.15,2013-02-18 00:09:00,
2013-02-17 19:14:00,19.3,14.7,30.26,NNW,341,2.0,3.0,82,0.00,,,0.00,Wunderground v.1.15,2013-02-18 00:14:00,
2013-02-17 19:20:00,19.4,14.5,30.26,NNW,330,2.0,2.0,81,0.00,,,0.00,Wunderground v.1.15,2013-02-18 00:20:00,
2013-02-17 19:25:00,19.5,14.3,30.26,NNW,338,2.0,5.0,80,0.00,,,0.00,Wunderground v.1.15,2013-02-18 00:25:00,
2013-02-17 19:31:00,19.6,13.9,30.26,NNW,339,3.0,8.0,78,0.00,,,0.00,Wunderground v.1.15,2013-02-18 00:31:00,
2013-02-17 19:37:00,19.7,13.1,30.27,North,350,2.0,8.0,75,0.00,,,0.00,Wunderground v.1.15,2013-02-18 00:37:00,
2013-02-17 19:42:00,19.7,12.1,30.27,NNW,332,3.0,10.0,72,0.00,,,0.00,Wunderground v.1.15,2013-02-18 00:42:00,
2013-02-17 19:47:00,19.7,11.2,30.27,WNW,298,4.0,10.0,69,0.00,,,0.00,Wunderground v.1.15,2013-02-18 00:47:00,
2013-02-17 19:52:00,19.7,10.8,30.27,NW,316,4.0,8.0,68,0.00,,,0.00,Wunderground v.1.15,2013-02-18 00:52:00,
2013-02-17 19:58:00,19.8,10.9,30.27,WNW,282,3.0,8.0,68,0.00,,,0.00,Wunderground v.1.15,2013-02-18 00:58:00,
2013-02-17 20:03:00,19.8,10.9,30.28,NW,308,3.0,4.0,68,0.00,,,0.00,Wunderground v.1.15,2013-02-18 01:03:00,
2013-02-17 20:10:00,19.9,10.7,30.28,NW,323,3.0,3.0,67,0.00,,,0.00,Wunderground v.1.15,2013-02-18 01:10:00,
2013-02-17 20:15:00,19.9,10.4,30.28,NW,320,3.0,5.0,66,0.00,,,0.00,Wunderground v.1.15,2013-02-18 01:15:00,
2013-02-17 20:20:00,19.9,10.0,30.28,NNW,344,3.0,3.0,65,0.00,,,0.00,Wunderground v.1.15,2013-02-18 01:20:00,
2013-02-17 20:25:00,19.9,10.4,30.28,NNW,329,3.0,5.0,66,0.00,,,0.00,Wunderground v.1.15,2013-02-18 01:25:00,
2013-02-17 20:30:00,20.0,10.8,30.29,NW,317,3.0,3.0,67,0.00,,,0.00,Wunderground v.1.15,2013-02-18 01:30:00,
2013-02-17 20:35:00,20.0,10.8,30.29,NW,304,3.0,6.0,67,0.00,,,0.00,Wunderground v.1.15,2013-02-18 01:35:00,
2013-02-17 20:41:00,20.0,10.8,30.29,WNW,283,4.0,6.0,67,0.00,,,0.00,Wunderground v.1.15,2013-02-18 01:41:00,
2013-02-17 20:46:00,20.0,10.5,30.29,NW,323,4.0,6.0,66,0.00,,,0.00,Wunderground v.1.15,2013-02-18 01:46:00,
2013-02-17 20:51:00,20.0,10.5,30.29,NNW,331,3.0,6.0,66,0.00,,,0.00,Wunderground v.1.15,2013-02-18 01:51:00,
2013-02-17 20:57:00,20.0,10.5,30.29,West,278,2.0,6.0,66,0.00,,,0.00,Wunderground v.1.15,2013-02-18 01:57:00,
2013-02-17 21:02:00,19.9,10.4,30.30,WSW,248,3.0,4.0,66,0.00,,,0.00,Wunderground v.1.15,2013-02-18 02:02:00,
2013-02-17 21:08:00,19.9,10.4,30.30,NW,326,3.0,4.0,66,0.00,,,0.00,Wunderground v.1.15,2013-02-18 02:08:00,
2013-02-17 21:13:00,19.9,10.4,30.30,WNW,294,3.0,5.0,66,0.00,,,0.00,Wunderground v.1.15,2013-02-18 02:13:00,
2013-02-17 21:18:00,19.9,10.7,30.30,NW,309,2.0,6.0,67,0.00,,,0.00,Wunderground v.1.15,2013-02-18 02:18:00,
2013-02-17 21:23:00,19.9,10.4,30.30,WSW,247,3.0,3.0,66,0.00,,,0.00,Wunderground v.1.15,2013-02-18 02:23:00,
2013-02-17 21:28:00,19.9,10.4,30.31,SW,226,3.0,4.0,66,0.00,,,0.00,Wunderground v.1.15,2013-02-18 02:28:00,
2013-02-17 21:34:00,19.9,10.4,30.31,NNW,340,3.0,10.0,66,0.00,,,0.00,Wunderground v.1.15,2013-02-18 02:34:00,
2013-02-17 21:39:00,19.9,10.4,30.31,North,350,2.0,10.0,66,0.00,,,0.00,Wunderground v.1.15,2013-02-18 02:39:00,
2013-02-17 21:44:00,19.9,10.4,30.31,SSE,147,1.0,10.0,66,0.00,,,0.00,Wunderground v.1.15,2013-02-18 02:44:00,
2013-02-17 21:50:00,19.8,10.3,30.31,NW,325,2.0,2.0,66,0.00,,,0.00,Wunderground v.1.15,2013-02-18 02:50:00,
2013-02-17 21:55:00,19.7,10.5,30.31,SSW,194,2.0,10.0,67,0.00,,,0.00,Wunderground v.1.15,2013-02-18 02:55:00,
2013-02-17 22:00:00,19.7,10.2,30.31,NW,325,2.0,3.0,66,0.00,,,0.00,Wunderground v.1.15,2013-02-18 03:00:00,
2013-02-17 22:06:00,19.7,9.8,30.31,NNW,344,2.0,4.0,65,0.00,,,0.00,Wunderground v.1.15,2013-02-18 03:06:00,
2013-02-17 22:11:00,19.5,9.6,30.31,NNW,333,2.0,5.0,65,0.00,,,0.00,Wunderground v.1.15,2013-02-18 03:11:00,
2013-02-17 22:17:00,19.4,9.5,30.32,NNW,334,2.0,5.0,65,0.00,,,0.00,Wunderground v.1.15,2013-02-18 03:17:00,
2013-02-17 22:23:00,19.1,9.3,30.32,WNW,302,1.0,7.0,65,0.00,,,0.00,Wunderground v.1.15,2013-02-18 03:23:00,
2013-02-17 22:28:00,18.9,9.1,30.32,NNW,335,2.0,7.0,65,0.00,,,0.00,Wunderground v.1.15,2013-02-18 03:28:00,
2013-02-17 22:33:00,18.6,9.1,30.32,NNW,341,1.0,8.0,66,0.00,,,0.00,Wunderground v.1.15,2013-02-18 03:33:00,
2013-02-17 22:38:00,18.5,9.4,30.32,NNW,341,1.0,8.0,67,0.00,,,0.00,Wunderground v.1.15,2013-02-18 03:38:00,
2013-02-17 22:44:00,18.2,8.7,30.33,NW,322,1.0,8.0,66,0.00,,,0.00,Wunderground v.1.15,2013-02-18 03:44:00,
2013-02-17 22:49:00,18.1,9.0,30.32,NW,323,1.0,8.0,67,0.00,,,0.00,Wunderground v.1.15,2013-02-18 03:49:00,
2013-02-17 22:55:00,18.0,9.2,30.33,NW,323,0.0,8.0,68,0.00,,,0.00,Wunderground v.1.15,2013-02-18 03:55:00,
2013-02-17 23:00:00,17.8,9.0,30.33,NW,322,0.0,8.0,68,0.00,,,0.00,Wunderground v.1.15,2013-02-18 04:00:00,
2013-02-17 23:05:00,17.7,9.2,30.33,NW,323,0.0,8.0,69,0.00,,,0.00,Wunderground v.1.15,2013-02-18 04:05:00,
2013-02-17 23:10:00,17.5,9.4,30.33,NW,322,0.0,0.0,70,0.00,,,0.00,Wunderground v.1.15,2013-02-18 04:10:00,
2013-02-17 23:15:00,17.2,9.4,30.33,NW,323,0.0,0.0,71,0.00,,,0.00,Wunderground v.1.15,2013-02-18 04:15:00,
2013-02-17 23:20:00,16.9,9.1,30.33,NW,323,0.0,0.0,71,0.00,,,0.00,Wunderground v.1.15,2013-02-18 04:20:00,
2013-02-17 23:26:00,16.4,8.9,30.33,NW,323,0.0,0.0,72,0.00,,,0.00,Wunderground v.1.15,2013-02-18 04:26:00,
2013-02-17 23:31:00,16.2,9.1,30.33,NW,323,0.0,8.0,73,0.00,,,0.00,Wunderground v.1.15,2013-02-18 04:31:00,
2013-02-17 23:36:00,15.7,8.9,30.33,NW,323,0.0,8.0,74,0.00,,,0.00,Wunderground v.1.15,2013-02-18 04:36:00,
2013-02-17 23:41:00,15.2,8.7,30.34,NW,323,0.0,8.0,75,0.00,,,0.00,Wunderground v.1.15,2013-02-18 04:41:00,
2013-02-17 23:47:00,14.8,8.3,30.34,NW,322,0.0,8.0,75,0.00,,,0.00,Wunderground v.1.15,2013-02-18 04:47:00,
2013-02-17 23:52:00,14.5,8.0,30.34,NW,323,0.0,8.0,75,0.00,,,0.00,Wunderground v.1.15,2013-02-18 04:52:00,
2013-02-17 23:58:00,13.9,8.0,30.34,NW,323,0.0,8.0,77,0.00,,,0.00,Wunderground v.1.15,2013-02-18 04:58:00,